| time (UTC) | temp F | wind direction | speed MPH | gust MPH | rain 1hr in | rain 24hr in | rain mn in | humidity % | barometer mb |
| 20260831092507 | 73 | 67 | 0.0 | 0.0 | 0.00 | 0.00 | 0.00 | 93 | 1016.9 |
| 20260831092002 | 74 | 67 | 0.0 | 0.0 | 0.00 | 0.00 | 0.00 | 93 | 1016.8 |
| 20260831091504 | 74 | 67 | 0.0 | 0.0 | 0.00 | 0.00 | 0.00 | 93 | 1016.8 |
| 20260831091003 | 74 | 67 | 0.0 | 0.0 | 0.00 | 0.00 | 0.00 | 93 | 1016.7 |
| 20260831090506 | 74 | 67 | 0.0 | 0.0 | 0.00 | 0.00 | 0.00 | 93 | 1016.7 |
| 20260831090007 | 74 | 67 | 0.0 | 0.0 | 0.00 | 0.00 | 0.00 | 93 | 1016.6 |
| 20260831085504 | 74 | 67 | 0.0 | 0.0 | 0.00 | 0.00 | 0.00 | 93 | 1016.7 |
| 20260831085005 | 74 | 67 | 0.0 | 0.0 | 0.00 | 0.00 | 0.00 | 94 | 1016.7 |
| 20260831084504 | 74 | 67 | 0.0 | 0.0 | 0.00 | 0.00 | 0.00 | 93 | 1016.8 |
| 20260831084004 | 74 | 67 | 0.0 | 0.0 | 0.00 | 0.00 | 0.00 | 93 | 1016.8 |
| 20260831083507 | 74 | 67 | 0.0 | 0.0 | 0.00 | 0.00 | 0.00 | 93 | 1016.8 |
| 20260831083023 | 74 | 67 | 0.0 | 0.0 | 0.00 | 0.00 | 0.00 | 93 | 1016.7 |
| 20260831082504 | 74 | 67 | 0.0 | 0.0 | 0.00 | 0.00 | 0.00 | 94 | 1016.7 |
| 20260831082004 | 74 | 67 | 0.0 | 0.0 | 0.00 | 0.00 | 0.00 | 94 | 1016.5 |
| 20260831081523 | 74 | 67 | 0.0 | 0.0 | 0.00 | 0.00 | 0.00 | 94 | 1016.6 |
| 20260831081014 | 74 | 76 | 0.0 | 0.0 | 0.00 | 0.00 | 0.00 | 93 | 1016.6 |
| 20260831080507 | 74 | 77 | 0.0 | 0.0 | 0.00 | 0.00 | 0.00 | 93 | 1016.8 |
| 20260831080022 | 74 | 59 | 0.0 | 0.0 | 0.00 | 0.00 | 0.00 | 93 | 1016.7 |
| 20260831075503 | 74 | 48 | 0.0 | 0.0 | 0.00 | 0.00 | 0.00 | 93 | 1016.6 |
| 20260831075004 | 74 | 48 | 0.0 | 0.0 | 0.00 | 0.00 | 0.00 | 93 | 1016.7 |
| 20260831074513 | 74 | 48 | 0.0 | 0.0 | 0.00 | 0.00 | 0.00 | 93 | 1017.0 |
| 20260831074006 | 74 | 48 | 0.0 | 0.0 | 0.00 | 0.00 | 0.00 | 93 | 1017.0 |
| 20260831073507 | 74 | 48 | 0.0 | 0.0 | 0.00 | 0.00 | 0.00 | 93 | 1017.1 |
| 20260831073019 | 74 | 48 | 0.0 | 0.0 | 0.00 | 0.00 | 0.00 | 93 | 1017.1 |
| 20260831072506 | 74 | 47 | 0.0 | 0.0 | 0.00 | 0.00 | 0.00 | 93 | 1017.1 |
| 20260831072011 | 74 | 47 | 0.0 | 0.0 | 0.00 | 0.00 | 0.00 | 93 | 1017.2 |
| 20260831071507 | 74 | 47 | 0.0 | 0.0 | 0.00 | 0.00 | 0.00 | 93 | 1017.4 |
| 20260831071003 | 74 | 47 | 0.0 | 0.0 | 0.00 | 0.00 | 0.00 | 93 | 1017.3 |
| 20260831070507 | 74 | 47 | 0.0 | 0.0 | 0.00 | 0.00 | 0.00 | 93 | 1017.2 |
| 20260831070030 | 74 | 47 | 0.0 | 0.0 | 0.00 | 0.00 | 0.00 | 93 | 1017.2 |
| 20260831065507 | 74 | 47 | 0.0 | 0.0 | 0.00 | 0.00 | 0.00 | 93 | 1017.2 |
| 20260831065004 | 74 | 47 | 0.0 | 0.0 | 0.00 | 0.00 | 0.00 | 93 | 1017.3 |
| 20260831064510 | 74 | 47 | 0.0 | 0.0 | 0.00 | 0.00 | 0.00 | 93 | 1017.4 |
| 20260831064004 | 74 | 47 | 0.0 | 0.0 | 0.00 | 0.00 | 0.00 | 93 | 1017.4 |
| 20260831063504 | 74 | 42 | 0.0 | 0.0 | 0.00 | 0.00 | 0.00 | 92 | 1017.2 |
| 20260831063024 | 74 | 42 | 0.0 | 0.0 | 0.00 | 0.00 | 0.00 | 93 | 1017.3 |
| 20260831062507 | 74 | 42 | 0.0 | 0.0 | 0.00 | 0.00 | 0.00 | 92 | 1017.3 |
| 20260831062008 | 74 | 42 | 0.0 | 0.0 | 0.00 | 0.00 | 0.00 | 92 | 1017.3 |
| 20260831061516 | 74 | 42 | 0.0 | 0.0 | 0.00 | 0.00 | 0.00 | 93 | 1017.4 |
| 20260831061013 | 74 | 42 | 0.0 | 0.0 | 0.00 | 0.00 | 0.00 | 92 | 1017.4 |
| 20260831060503 | 74 | 42 | 0.0 | 0.0 | 0.00 | 0.00 | 0.00 | 92 | 1017.5 |
| 20260831060014 | 74 | 42 | 0.0 | 0.0 | 0.00 | 0.00 | 0.00 | 92 | 1017.4 |
| 20260831055507 | 74 | 42 | 0.0 | 0.0 | 0.00 | 0.00 | 0.00 | 92 | 1017.4 |
| 20260831055011 | 74 | 42 | 0.0 | 0.0 | 0.00 | 0.00 | 0.00 | 92 | 1017.5 |
| 20260831054513 | 74 | 42 | 0.0 | 0.0 | 0.00 | 0.00 | 0.00 | 92 | 1017.7 |
| 20260831054004 | 74 | 42 | 0.0 | 0.0 | 0.00 | 0.01 | 0.00 | 92 | 1017.8 |
| 20260831053503 | 74 | 42 | 0.0 | 0.0 | 0.00 | 0.01 | 0.00 | 92 | 1017.9 |
| 20260831053014 | 74 | 42 | 0.0 | 0.0 | 0.00 | 0.01 | 0.00 | 92 | 1018.0 |
| 20260831052504 | 73 | 42 | 0.0 | 0.0 | 0.00 | 0.01 | 0.00 | 92 | 1018.0 |
| 20260831052004 | 74 | 42 | 0.0 | 0.0 | 0.00 | 0.01 | 0.00 | 92 | 1018.1 |
| 20260831051518 | 73 | 42 | 0.0 | 0.0 | 0.00 | 0.01 | 0.00 | 91 | 1018.1 |
| 20260831051004 | 73 | 42 | 0.0 | 0.0 | 0.00 | 0.01 | 0.00 | 91 | 1018.1 |
| 20260831050507 | 74 | 42 | 0.0 | 0.0 | 0.00 | 0.01 | 0.00 | 91 | 1018.1 |
| 20260831050027 | 74 | 42 | 0.0 | 0.0 | 0.00 | 0.01 | 0.00 | 91 | 1018.1 |
| 20260831045513 | 74 | 42 | 0.0 | 0.0 | 0.00 | 0.01 | 0.00 | 91 | 1018.2 |
| 20260831045004 | 74 | 42 | 0.0 | 0.0 | 0.00 | 0.01 | 0.00 | 91 | 1018.4 |
| 20260831044528 | 74 | 42 | 0.0 | 0.0 | 0.00 | 0.01 | 0.00 | 91 | 1018.3 |
| 20260831044014 | 74 | 42 | 0.0 | 0.0 | 0.00 | 0.01 | 0.00 | 91 | 1018.4 |
| 20260831043507 | 74 | 42 | 0.0 | 0.0 | 0.00 | 0.01 | 0.00 | 91 | 1018.3 |
| 20260831043019 | 74 | 42 | 0.0 | 0.0 | 0.00 | 0.01 | 0.00 | 91 | 1018.3 |
| 20260831042506 | 74 | 42 | 0.0 | 0.0 | 0.00 | 0.01 | 0.00 | 91 | 1018.4 |
| 20260831042004 | 74 | 42 | 0.0 | 0.0 | 0.00 | 0.01 | 0.00 | 91 | 1018.4 |
| 20260831041516 | 74 | 42 | 0.0 | 0.0 | 0.00 | 0.01 | 0.00 | 91 | 1018.4 |
| 20260831041008 | 74 | 42 | 0.0 | 0.0 | 0.00 | 0.01 | 0.00 | 91 | 1018.4 |
| 20260831040508 | 74 | 42 | 0.0 | 0.0 | 0.00 | 0.01 | 0.00 | 91 | 1018.4 |
| 20260831040009 | 74 | 42 | 0.0 | 0.0 | 0.00 | 0.01 | 0.00 | 91 | 1018.5 |
| 20260831035506 | 74 | 42 | 0.0 | 0.0 | 0.00 | 0.01 | 0.01 | 91 | 1018.5 |
| 20260831035009 | 74 | 42 | 0.0 | 0.0 | 0.00 | 0.01 | 0.01 | 91 | 1018.5 |
| 20260831034526 | 74 | 42 | 0.0 | 0.0 | 0.00 | 0.01 | 0.01 | 91 | 1018.5 |
| 20260831034006 | 75 | 42 | 0.0 | 0.0 | 0.00 | 0.01 | 0.01 | 91 | 1018.4 |
| 20260831033510 | 74 | 42 | 0.0 | 0.0 | 0.00 | 0.01 | 0.01 | 91 | 1018.5 |
| 20260831033031 | 74 | 42 | 0.0 | 0.0 | 0.00 | 0.01 | 0.01 | 90 | 1018.6 |
| 20260831032516 | 74 | 42 | 0.0 | 0.0 | 0.00 | 0.01 | 0.01 | 90 | 1018.5 |
| 20260831032007 | 75 | 42 | 0.0 | 0.0 | 0.00 | 0.01 | 0.01 | 90 | 1018.5 |
| 20260831031539 | 75 | 271 | 0.0 | 0.0 | 0.00 | 0.01 | 0.01 | 90 | 1018.4 |
| 20260831031004 | 75 | 271 | 0.0 | 0.0 | 0.00 | 0.01 | 0.01 | 90 | 1018.4 |
| 20260831030504 | 75 | 271 | 0.0 | 0.0 | 0.00 | 0.01 | 0.01 | 90 | 1018.3 |
| 20260831030017 | 75 | 271 | 0.0 | 0.0 | 0.00 | 0.01 | 0.01 | 90 | 1018.3 |
| 20260831025510 | 75 | 271 | 0.0 | 0.0 | 0.00 | 0.01 | 0.01 | 90 | 1018.2 |
| 20260831025011 | 75 | 271 | 0.0 | 0.0 | 0.00 | 0.01 | 0.01 | 90 | 1018.3 |
| 20260831024519 | 75 | 271 | 0.0 | 0.0 | 0.00 | 0.01 | 0.01 | 90 | 1018.3 |
| 20260831024012 | 75 | 271 | 0.0 | 0.0 | 0.00 | 0.01 | 0.01 | 90 | 1018.3 |
| 20260831023512 | 75 | 271 | 0.0 | 0.0 | 0.00 | 0.01 | 0.01 | 90 | 1018.4 |
| 20260831023015 | 75 | 271 | 0.0 | 0.0 | 0.00 | 0.01 | 0.01 | 90 | 1018.5 |
| 20260831022510 | 75 | 270 | 0.0 | 0.0 | 0.00 | 0.01 | 0.01 | 89 | 1018.5 |
| 20260831022012 | 75 | 270 | 0.0 | 0.0 | 0.00 | 0.01 | 0.01 | 90 | 1018.5 |
| 20260831021533 | 75 | 270 | 0.0 | 0.0 | 0.00 | 0.01 | 0.01 | 89 | 1018.5 |
| 20260831021009 | 75 | 270 | 0.0 | 0.0 | 0.00 | 0.01 | 0.01 | 89 | 1018.5 |
| 20260831020512 | 75 | 270 | 0.0 | 0.0 | 0.00 | 0.01 | 0.01 | 89 | 1018.6 |
| 20260831020014 | 75 | 270 | 0.0 | 0.0 | 0.00 | 0.01 | 0.01 | 89 | 1018.6 |
| 20260831015508 | 75 | 270 | 0.0 | 0.0 | 0.00 | 0.01 | 0.01 | 89 | 1018.6 |
| 20260831015008 | 75 | 270 | 0.0 | 0.0 | 0.00 | 0.01 | 0.01 | 88 | 1018.6 |
| 20260831014525 | 75 | 270 | 0.0 | 0.0 | 0.00 | 0.01 | 0.01 | 89 | 1018.7 |
| 20260831014012 | 75 | 270 | 0.0 | 0.0 | 0.00 | 0.01 | 0.01 | 88 | 1018.7 |
| 20260831013507 | 76 | 270 | 0.0 | 0.0 | 0.00 | 0.01 | 0.01 | 88 | 1018.6 |
| 20260831013028 | 76 | 270 | 0.0 | 0.0 | 0.00 | 0.01 | 0.01 | 88 | 1018.6 |
| 20260831012512 | 76 | 270 | 0.0 | 0.0 | 0.00 | 0.01 | 0.01 | 88 | 1018.7 |
| 20260831012007 | 76 | 270 | 0.0 | 0.0 | 0.00 | 0.01 | 0.01 | 88 | 1018.8 |
| 20260831011509 | 76 | 270 | 0.0 | 0.0 | 0.00 | 0.01 | 0.01 | 88 | 1018.7 |
| 20260831011003 | 76 | 270 | 0.0 | 0.0 | 0.00 | 0.01 | 0.01 | 88 | 1018.7 |
| 20260831010504 | 76 | 270 | 0.0 | 0.0 | 0.00 | 0.01 | 0.01 | 87 | 1018.6 |
| 20260831010012 | 77 | 270 | 0.0 | 0.0 | 0.00 | 0.01 | 0.01 | 87 | 1018.6 |
| 20260831005504 | 77 | 270 | 0.0 | 0.0 | 0.00 | 0.01 | 0.01 | 87 | 1018.6 |
| 20260831005004 | 77 | 270 | 0.0 | 0.0 | 0.00 | 0.01 | 0.01 | 87 | 1018.5 |
| 20260831004518 | 77 | 270 | 0.0 | 0.0 | 0.00 | 0.01 | 0.01 | 86 | 1018.5 |
| 20260831004005 | 77 | 270 | 0.0 | 0.0 | 0.00 | 0.01 | 0.01 | 86 | 1018.5 |
| 20260831003509 | 77 | 271 | 0.0 | 0.0 | 0.00 | 0.01 | 0.01 | 86 | 1018.4 |
| 20260831003011 | 77 | 271 | 0.0 | 0.0 | 0.00 | 0.01 | 0.01 | 85 | 1018.2 |
| 20260831002507 | 77 | 271 | 0.0 | 0.0 | 0.00 | 0.01 | 0.01 | 85 | 1018.3 |
| 20260831002012 | 77 | 271 | 0.0 | 0.0 | 0.00 | 0.01 | 0.01 | 85 | 1018.3 |
| 20260831001508 | 77 | 271 | 0.0 | 0.0 | 0.00 | 0.01 | 0.01 | 84 | 1018.1 |
| 20260831001009 | 78 | 222 | 0.0 | 0.0 | 0.00 | 0.01 | 0.01 | 84 | 1018.0 |
| 20260831000508 | 78 | 215 | 0.0 | 0.0 | 0.00 | 0.01 | 0.01 | 84 | 1017.8 |
| 20260831000020 | 78 | 215 | 0.0 | 0.0 | 0.00 | 0.01 | 0.01 | 84 | 1017.9 |
| 20260830235504 | 78 | 215 | 0.0 | 0.0 | 0.00 | 0.01 | 0.01 | 84 | 1017.8 |
| 20260830235005 | 78 | 214 | 0.0 | 0.0 | 0.00 | 0.02 | 0.01 | 83 | 1017.8 |
| 20260830234531 | 78 | 214 | 0.0 | 0.0 | 0.00 | 0.02 | 0.01 | 84 | 1017.6 |
| 20260830234008 | 78 | 214 | 0.0 | 0.0 | 0.00 | 0.02 | 0.01 | 83 | 1017.4 |
| 20260830233504 | 78 | 214 | 0.0 | 0.0 | 0.00 | 0.03 | 0.01 | 83 | 1017.5 |
| 20260830233024 | 78 | 214 | 0.0 | 0.0 | 0.00 | 0.03 | 0.01 | 83 | 1017.6 |
| 20260830232511 | 78 | 214 | 0.0 | 0.0 | 0.00 | 0.04 | 0.01 | 83 | 1017.5 |
| 20260830232007 | 78 | 214 | 0.0 | 0.0 | 0.00 | 0.04 | 0.01 | 83 | 1017.5 |
| 20260830231516 | 78 | 214 | 0.0 | 0.0 | 0.00 | 0.04 | 0.01 | 83 | 1017.6 |
| 20260830231015 | 78 | 214 | 0.0 | 0.0 | 0.00 | 0.05 | 0.01 | 83 | 1017.6 |
| 20260830230515 | 78 | 214 | 0.0 | 0.0 | 0.00 | 0.05 | 0.01 | 82 | 1017.6 |
| 20260830230021 | 79 | 214 | 0.0 | 0.0 | 0.00 | 0.05 | 0.01 | 82 | 1017.6 |
| 20260830225510 | 79 | 214 | 0.0 | 0.0 | 0.00 | 0.05 | 0.01 | 83 | 1017.6 |
| 20260830225003 | 79 | 214 | 0.0 | 0.0 | 0.00 | 0.05 | 0.01 | 83 | 1017.5 |
| 20260830224511 | 79 | 203 | 0.0 | 0.0 | 0.00 | 0.05 | 0.01 | 83 | 1017.5 |
| 20260830224012 | 79 | 203 | 0.0 | 0.0 | 0.00 | 0.05 | 0.01 | 82 | 1017.6 |
| 20260830223504 | 79 | 202 | 0.0 | 1.0 | 0.00 | 0.05 | 0.01 | 83 | 1017.7 |
| 20260830223016 | 79 | 202 | 0.0 | 5.0 | 0.00 | 0.05 | 0.01 | 83 | 1017.6 |
| 20260830222503 | 79 | 207 | 1.0 | 5.0 | 0.00 | 0.05 | 0.01 | 82 | 1017.7 |
| 20260830222019 | 79 | 199 | 1.0 | 5.0 | 0.00 | 0.05 | 0.01 | 82 | 1017.6 |
| 20260830221531 | 79 | 168 | 0.0 | 3.0 | 0.00 | 0.05 | 0.01 | 83 | 1017.6 |
| 20260830221004 | 79 | 196 | 0.0 | 3.0 | 0.00 | 0.05 | 0.01 | 84 | 1017.6 |
| 20260830220506 | 79 | 196 | 0.0 | 2.0 | 0.00 | 0.05 | 0.01 | 85 | 1017.3 |
| 20260830220027 | 79 | 178 | 0.0 | 3.0 | 0.00 | 0.05 | 0.01 | 85 | 1017.2 |
| 20260830215516 | 79 | 188 | 0.0 | 4.0 | 0.00 | 0.05 | 0.01 | 85 | 1017.2 |
| 20260830215005 | 79 | 193 | 1.0 | 4.0 | 0.00 | 0.05 | 0.01 | 85 | 1017.2 |
| 20260830214525 | 79 | 165 | 0.0 | 4.0 | 0.00 | 0.06 | 0.01 | 86 | 1017.2 |
| 20260830214003 | 79 | 172 | 0.0 | 5.0 | 0.00 | 0.06 | 0.01 | 86 | 1017.3 |
| 20260830213505 | 79 | 182 | 1.0 | 5.0 | 0.00 | 0.07 | 0.01 | 86 | 1017.3 |
| 20260830213020 | 79 | 172 | 0.0 | 5.0 | 0.00 | 0.26 | 0.01 | 86 | 1017.3 |
| 20260830212507 | 79 | 165 | 0.0 | 2.0 | 0.00 | 0.44 | 0.01 | 86 | 1017.3 |
| 20260830212008 | 79 | 140 | 0.0 | 5.0 | 0.00 | 0.44 | 0.01 | 86 | 1017.3 |
| 20260830211515 | 79 | 159 | 0.0 | 5.0 | 0.00 | 0.44 | 0.01 | 86 | 1017.4 |
| 20260830211008 | 78 | 190 | 0.0 | 6.0 | 0.00 | 0.44 | 0.01 | 86 | 1017.4 |
| 20260830210514 | 79 | 196 | 1.0 | 6.0 | 0.00 | 0.44 | 0.01 | 85 | 1017.4 |
| 20260830210028 | 79 | 195 | 2.0 | 9.0 | 0.00 | 0.44 | 0.01 | 85 | 1017.5 |
| 20260830205512 | 79 | 188 | 2.0 | 9.0 | 0.00 | 0.44 | 0.01 | 85 | 1017.6 |
| 20260830205015 | 79 | 154 | 0.0 | 4.0 | 0.00 | 0.44 | 0.01 | 85 | 1017.7 |
| 20260830204541 | 79 | 189 | 0.0 | 12.0 | 0.00 | 0.44 | 0.01 | 85 | 1017.7 |
| 20260830204008 | 79 | 167 | 0.0 | 13.0 | 0.00 | 0.44 | 0.01 | 84 | 1017.6 |
| 20260830203516 | 80 | 180 | 5.0 | 13.0 | 0.00 | 0.44 | 0.01 | 83 | 1017.6 |
| 20260830203038 | 81 | 175 | 6.0 | 13.0 | 0.00 | 0.44 | 0.01 | 83 | 1017.6 |
| 20260830202504 | 82 | 189 | 5.0 | 12.0 | 0.00 | 0.44 | 0.01 | 82 | 1017.6 |
| 20260830202008 | 82 | 185 | 4.0 | 10.0 | 0.00 | 0.44 | 0.01 | 78 | 1017.6 |
| 20260830201518 | 83 | 182 | 3.0 | 10.0 | 0.00 | 0.44 | 0.01 | 76 | 1017.6 |
| 20260830201010 | 83 | 99 | 2.0 | 10.0 | 0.00 | 0.44 | 0.01 | 76 | 1017.5 |
| 20260830200503 | 84 | 155 | 3.0 | 15.0 | 0.00 | 0.44 | 0.01 | 75 | 1017.2 |
| 20260830200039 | 85 | 140 | 6.0 | 15.0 | 0.00 | 0.44 | 0.01 | 75 | 1017.1 |
| 20260830195513 | 85 | 90 | 1.0 | 11.0 | 0.00 | 0.44 | 0.01 | 74 | 1017.0 |
| 20260830195017 | 85 | 105 | 1.0 | 14.0 | 0.00 | 0.44 | 0.01 | 73 | 1017.0 |
| 20260830194517 | 86 | 95 | 5.0 | 14.0 | 0.00 | 0.44 | 0.01 | 72 | 1017.1 |
| 20260830194015 | 87 | 119 | 9.0 | 14.0 | 0.00 | 0.44 | 0.01 | 70 | 1017.1 |
| 20260830193517 | 88 | 124 | 8.0 | 18.0 | 0.00 | 0.44 | 0.01 | 69 | 1017.1 |
| 20260830193030 | 89 | 70 | 9.0 | 18.0 | 0.00 | 0.44 | 0.01 | 67 | 1017.1 |
| 20260830192508 | 92 | 72 | 9.0 | 18.0 | 0.00 | 0.44 | 0.01 | 65 | 1017.2 |
| 20260830192016 | 93 | 114 | 4.0 | 8.0 | 0.00 | 0.44 | 0.01 | 65 | 1017.0 |
| 20260830191515 | 94 | 112 | 0.0 | 6.0 | 0.00 | 0.44 | 0.01 | 66 | 1016.9 |
| 20260830191008 | 93 | 61 | 0.0 | 7.0 | 0.00 | 0.44 | 0.01 | 68 | 1017.0 |
| 20260830190509 | 93 | 90 | 1.0 | 7.0 | 0.00 | 0.44 | 0.01 | 66 | 1017.1 |
| 20260830190021 | 93 | 53 | 0.0 | 6.0 | 0.00 | 0.44 | 0.01 | 67 | 1017.2 |
| 20260830185508 | 92 | 23 | 2.0 | 5.0 | 0.00 | 0.44 | 0.01 | 70 | 1017.3 |
| 20260830185011 | 91 | 35 | 1.0 | 5.0 | 0.00 | 0.44 | 0.01 | 70 | 1017.5 |
| 20260830184529 | 91 | 65 | 0.0 | 5.0 | 0.00 | 0.44 | 0.01 | 69 | 1017.5 |
| 20260830184013 | 92 | 70 | 0.0 | 8.0 | 0.00 | 0.44 | 0.01 | 67 | 1017.5 |
| 20260830183508 | 92 | 52 | 3.0 | 8.0 | 0.00 | 0.44 | 0.01 | 68 | 1017.4 |
| 20260830183026 | 92 | 100 | 0.0 | 7.0 | 0.00 | 0.44 | 0.01 | 69 | 1017.5 |
| 20260830182516 | 92 | 75 | 2.0 | 7.0 | 0.00 | 0.44 | 0.01 | 71 | 1017.6 |
| 20260830182015 | 92 | 74 | 0.0 | 5.0 | 0.00 | 0.44 | 0.01 | 68 | 1017.8 |
| 20260830181523 | 92 | 74 | 0.0 | 7.0 | 0.00 | 0.44 | 0.01 | 69 | 1017.6 |
| 20260830181014 | 92 | 74 | 2.0 | 7.0 | 0.00 | 0.44 | 0.01 | 73 | 1017.7 |
| 20260830180523 | 92 | 94 | 0.0 | 8.0 | 0.00 | 0.44 | 0.01 | 72 | 1017.9 |
| 20260830180019 | 91 | 69 | 3.0 | 8.0 | 0.00 | 0.44 | 0.01 | 71 | 1018.0 |
| 20260830175510 | 91 | 51 | 0.0 | 4.0 | 0.00 | 0.44 | 0.01 | 70 | 1018.0 |
| 20260830175013 | 91 | 17 | 0.0 | 4.0 | 0.00 | 0.44 | 0.01 | 70 | 1018.0 |
| 20260830174524 | 92 | 64 | 0.0 | 3.0 | 0.00 | 0.44 | 0.01 | 70 | 1018.0 |
| 20260830174008 | 92 | 5 | 0.0 | 4.0 | 0.00 | 0.44 | 0.01 | 70 | 1018.1 |
| 20260830173517 | 91 | 38 | 0.0 | 4.0 | 0.00 | 0.44 | 0.01 | 71 | 1018.1 |
| 20260830173029 | 91 | 140 | 0.0 | 2.0 | 0.00 | 0.44 | 0.01 | 73 | 1018.1 |
| 20260830172506 | 91 | 66 | 0.0 | 4.0 | 0.00 | 0.44 | 0.01 | 71 | 1018.3 |
| 20260830172020 | 91 | 113 | 1.0 | 4.0 | 0.00 | 0.44 | 0.01 | 74 | 1018.5 |
| 20260830171532 | 91 | 69 | 0.0 | 6.0 | 0.00 | 0.44 | 0.01 | 76 | 1018.4 |
| 20260830171014 | 90 | 346 | 0.0 | 6.0 | 0.00 | 0.44 | 0.01 | 75 | 1018.5 |
| 20260830170508 | 90 | 30 | 0.0 | 3.0 | 0.00 | 0.44 | 0.01 | 75 | 1018.6 |
| 20260830170034 | 90 | 102 | 0.0 | 3.0 | 0.00 | 0.44 | 0.01 | 77 | 1018.7 |
| 20260830165515 | 89 | 168 | 0.0 | 2.0 | 0.00 | 0.44 | 0.01 | 78 | 1018.7 |
| 20260830165017 | 88 | 202 | 0.0 | 2.0 | 0.00 | 0.44 | 0.01 | 81 | 1018.8 |
| 20260830164543 | 87 | 20 | 0.0 | 1.0 | 0.00 | 0.44 | 0.01 | 81 | 1018.8 |
| 20260830164013 | 87 | 84 | 0.0 | 1.0 | 0.00 | 0.44 | 0.01 | 80 | 1018.8 |
| 20260830163510 | 87 | 207 | 0.0 | 0.0 | 0.00 | 0.44 | 0.01 | 78 | 1018.9 |
| 20260830163023 | 87 | 223 | 0.0 | 0.0 | 0.00 | 0.44 | 0.01 | 79 | 1018.8 |
| 20260830162514 | 87 | 200 | 0.0 | 0.0 | 0.00 | 0.44 | 0.01 | 81 | 1018.9 |
| 20260830162018 | 87 | 219 | 0.0 | 1.0 | 0.00 | 0.44 | 0.01 | 80 | 1018.9 |
| 20260830161533 | 87 | 194 | 0.0 | 2.0 | 0.00 | 0.44 | 0.01 | 81 | 1018.9 |
| 20260830161013 | 87 | 198 | 0.0 | 2.0 | 0.00 | 0.44 | 0.01 | 80 | 1018.8 |
| 20260830160503 | 87 | 54 | 0.0 | 4.0 | 0.00 | 0.44 | 0.01 | 79 | 1018.9 |
| 20260830160012 | 87 | 87 | 0.0 | 4.0 | 0.00 | 0.44 | 0.01 | 81 | 1018.9 |
| 20260830155511 | 87 | 97 | 0.0 | 2.0 | 0.00 | 0.44 | 0.01 | 83 | 1019.1 |
| 20260830155005 | 86 | 68 | 0.0 | 5.0 | 0.00 | 0.44 | 0.01 | 84 | 1019.1 |
| 20260830154513 | 85 | 32 | 0.0 | 8.0 | 0.00 | 0.44 | 0.01 | 85 | 1019.2 |
| 20260830154005 | 84 | 126 | 1.0 | 8.0 | 0.00 | 0.44 | 0.01 | 85 | 1019.0 |
| 20260830153509 | 84 | 360 | 0.0 | 0.0 | 0.00 | 0.44 | 0.01 | 85 | 1019.3 |
| 20260830153010 | 84 | 306 | 0.0 | 0.0 | 0.00 | 0.44 | 0.01 | 86 | 1019.4 |
| 20260830152506 | 83 | 336 | 0.0 | 0.0 | 0.00 | 0.44 | 0.01 | 87 | 1019.3 |
| 20260830152003 | 83 | 18 | 0.0 | 0.0 | 0.00 | 0.44 | 0.01 | 87 | 1019.3 |
| 20260830151506 | 83 | 20 | 0.0 | 0.0 | 0.00 | 0.44 | 0.01 | 87 | 1019.4 |
| 20260830151004 | 83 | 87 | 0.0 | 1.0 | 0.00 | 0.44 | 0.01 | 87 | 1019.5 |
| 20260830150503 | 83 | 101 | 0.0 | 1.0 | 0.00 | 0.44 | 0.01 | 87 | 1019.5 |
| 20260830150013 | 83 | 55 | 0.0 | 0.0 | 0.00 | 0.44 | 0.01 | 88 | 1019.5 |
| 20260830145506 | 83 | 55 | 0.0 | 0.0 | 0.00 | 0.44 | 0.01 | 89 | 1019.6 |
| 20260830145003 | 83 | 59 | 0.0 | 0.0 | 0.00 | 0.44 | 0.01 | 88 | 1019.7 |
| 20260830144514 | 83 | 49 | 0.0 | 0.0 | 0.00 | 0.44 | 0.01 | 89 | 1019.6 |
| 20260830144003 | 83 | 32 | 0.0 | 1.0 | 0.00 | 0.44 | 0.01 | 89 | 1019.6 |
| 20260830143504 | 83 | 36 | 0.0 | 1.0 | 0.00 | 0.44 | 0.01 | 89 | 1019.5 |
| 20260830143019 | 82 | 48 | 0.0 | 1.0 | 0.00 | 0.44 | 0.01 | 91 | 1019.7 |
| 20260830142514 | 82 | 95 | 0.0 | 1.0 | 0.00 | 0.44 | 0.01 | 91 | 1019.7 |
| 20260830142004 | 82 | 56 | 0.0 | 1.0 | 0.00 | 0.44 | 0.01 | 92 | 1019.5 |
| 20260830141514 | 81 | 32 | 0.0 | 1.0 | 0.00 | 0.44 | 0.01 | 93 | 1019.6 |
| 20260830141007 | 81 | 40 | 0.0 | 1.0 | 0.00 | 0.44 | 0.01 | 93 | 1019.6 |
| 20260830140507 | 80 | 5 | 0.0 | 1.0 | 0.00 | 0.44 | 0.01 | 94 | 1019.6 |
| 20260830140014 | 80 | 333 | 0.0 | 1.0 | 0.00 | 0.44 | 0.01 | 94 | 1019.5 |
| 20260830135505 | 79 | 36 | 0.0 | 1.0 | 0.00 | 0.44 | 0.01 | 94 | 1019.5 |
| 20260830135011 | 79 | 23 | 0.0 | 1.0 | 0.00 | 0.44 | 0.01 | 94 | 1019.6 |
| 20260830134519 | 79 | 33 | 0.0 | 1.0 | 0.00 | 0.44 | 0.01 | 94 | 1019.6 |
| 20260830134006 | 79 | 24 | 0.0 | 2.0 | 0.00 | 0.44 | 0.01 | 95 | 1019.5 |
| 20260830133509 | 78 | 56 | 0.0 | 2.0 | 0.00 | 0.44 | 0.01 | 95 | 1019.6 |
| 20260830133024 | 78 | 12 | 0.0 | 2.0 | 0.00 | 0.44 | 0.01 | 95 | 1019.5 |
| 20260830132504 | 78 | 36 | 0.0 | 2.0 | 0.00 | 0.44 | 0.01 | 96 | 1019.4 |
| 20260830132010 | 77 | 346 | 0.0 | 1.0 | 0.00 | 0.44 | 0.01 | 96 | 1019.5 |
| 20260830131535 | 77 | 311 | 0.0 | 1.0 | 0.00 | 0.44 | 0.01 | 96 | 1019.5 |
| 20260830131003 | 77 | 350 | 0.0 | 1.0 | 0.00 | 0.44 | 0.01 | 96 | 1019.5 |
| 20260830130509 | 77 | 318 | 0.0 | 1.0 | 0.00 | 0.44 | 0.01 | 96 | 1019.5 |
| 20260830130025 | 77 | 360 | 0.0 | 1.0 | 0.00 | 0.44 | 0.01 | 96 | 1019.5 |
| 20260830125503 | 76 | 329 | 0.0 | 1.0 | 0.00 | 0.44 | 0.01 | 96 | 1019.5 |
| 20260830125003 | 76 | 5 | 0.0 | 1.0 | 0.00 | 0.44 | 0.01 | 96 | 1019.4 |
| 20260830124508 | 76 | 5 | 0.0 | 1.0 | 0.00 | 0.44 | 0.01 | 96 | 1019.4 |
| 20260830124008 | 75 | 10 | 0.0 | 0.0 | 0.00 | 0.44 | 0.01 | 96 | 1019.4 |
| 20260830123504 | 75 | 13 | 0.0 | 0.0 | 0.00 | 0.44 | 0.01 | 96 | 1019.3 |
| 20260830123017 | 75 | 336 | 0.0 | 0.0 | 0.00 | 0.44 | 0.01 | 96 | 1019.4 |
| 20260830122508 | 75 | 336 | 0.0 | 0.0 | 0.00 | 0.44 | 0.01 | 95 | 1019.3 |
| 20260830122008 | 75 | 348 | 0.0 | 0.0 | 0.00 | 0.44 | 0.01 | 95 | 1019.2 |
| 20260830121510 | 74 | 349 | 0.0 | 0.0 | 0.00 | 0.44 | 0.01 | 95 | 1019.2 |
| 20260830121007 | 74 | 352 | 0.0 | 0.0 | 0.00 | 0.44 | 0.01 | 95 | 1019.1 |
| 20260830120511 | 74 | 352 | 0.0 | 1.0 | 0.00 | 0.44 | 0.01 | 95 | 1019.1 |
| 20260830120008 | 74 | 352 | 0.0 | 1.0 | 0.00 | 0.44 | 0.01 | 95 | 1019.0 |
| 20260830115508 | 74 | 238 | 0.0 | 0.0 | 0.00 | 0.44 | 0.01 | 95 | 1018.8 |
| 20260830115013 | 74 | 238 | 0.0 | 0.0 | 0.00 | 0.44 | 0.01 | 95 | 1018.7 |
| 20260830114528 | 73 | 238 | 0.0 | 0.0 | 0.00 | 0.44 | 0.01 | 95 | 1018.7 |
| 20260830114005 | 73 | 238 | 0.0 | 0.0 | 0.00 | 0.44 | 0.01 | 95 | 1018.6 |
| 20260830113506 | 73 | 238 | 0.0 | 0.0 | 0.00 | 0.44 | 0.01 | 95 | 1018.5 |
| 20260830113016 | 73 | 238 | 0.0 | 0.0 | 0.00 | 0.44 | 0.01 | 95 | 1018.4 |
| 20260830112504 | 73 | 238 | 0.0 | 0.0 | 0.00 | 0.44 | 0.01 | 95 | 1018.4 |
| 20260830112006 | 73 | 315 | 0.0 | 0.0 | 0.00 | 0.44 | 0.01 | 95 | 1018.4 |
| 20260830111524 | 73 | 319 | 0.0 | 0.0 | 0.00 | 0.44 | 0.01 | 95 | 1018.4 |
| 20260830111010 | 73 | 319 | 0.0 | 0.0 | 0.00 | 0.44 | 0.01 | 95 | 1018.2 |
| 20260830110504 | 73 | 319 | 0.0 | 0.0 | 0.00 | 0.44 | 0.01 | 95 | 1018.2 |
| 20260830110025 | 73 | 319 | 0.0 | 0.0 | 0.00 | 0.44 | 0.01 | 95 | 1018.1 |
| 20260830105511 | 73 | 311 | 0.0 | 0.0 | 0.00 | 0.44 | 0.01 | 95 | 1018.1 |
| 20260830105012 | 73 | 311 | 0.0 | 0.0 | 0.00 | 0.44 | 0.01 | 95 | 1018.0 |
| 20260830104516 | 73 | 311 | 0.0 | 0.0 | 0.00 | 0.44 | 0.01 | 95 | 1017.9 |
| 20260830104011 | 73 | 311 | 0.0 | 0.0 | 0.00 | 0.44 | 0.01 | 95 | 1017.8 |
| 20260830103512 | 73 | 311 | 0.0 | 0.0 | 0.00 | 0.44 | 0.01 | 95 | 1017.7 |
| 20260830103013 | 73 | 311 | 0.0 | 0.0 | 0.00 | 0.44 | 0.01 | 95 | 1017.5 |
| 20260830102504 | 73 | 311 | 0.0 | 0.0 | 0.00 | 0.44 | 0.01 | 95 | 1017.5 |
| 20260830102009 | 73 | 311 | 0.0 | 0.0 | 0.00 | 0.44 | 0.01 | 95 | 1017.6 |
| 20260830101519 | 73 | 311 | 0.0 | 0.0 | 0.00 | 0.44 | 0.01 | 95 | 1017.6 |
| 20260830101009 | 73 | 311 | 0.0 | 0.0 | 0.00 | 0.44 | 0.01 | 95 | 1017.5 |
| 20260830100510 | 73 | 311 | 0.0 | 0.0 | 0.00 | 0.44 | 0.01 | 95 | 1017.5 |
| 20260830100028 | 73 | 311 | 0.0 | 0.0 | 0.00 | 0.44 | 0.01 | 95 | 1017.4 |
| 20260830095503 | 73 | 311 | 0.0 | 0.0 | 0.00 | 0.45 | 0.01 | 95 | 1017.4 |
| 20260830095009 | 73 | 288 | 0.0 | 0.0 | 0.00 | 0.45 | 0.01 | 95 | 1017.4 |
| 20260830094529 | 73 | 283 | 0.0 | 0.0 | 0.00 | 0.45 | 0.01 | 95 | 1017.5 |
| 20260830094013 | 73 | 282 | 0.0 | 0.0 | 0.00 | 0.45 | 0.01 | 95 | 1017.4 |
| 20260830093508 | 73 | 282 | 0.0 | 0.0 | 0.00 | 0.45 | 0.01 | 95 | 1017.3 |
| 20260830093026 | 73 | 282 | 0.0 | 0.0 | 0.00 | 0.45 | 0.01 | 95 | 1017.3 |